Location: York
(31.8935°S, 116.7682°E)
Time: 01:25:50
(UTC+08:00)

ISS - Pass Details

Date: 13 December 2021
Orbit: 413 x 422 km, 51.6° (Epoch: 20 January)

Event Time Altitude Azimuth Distance (km) Brightness Sun altitude
Rises 03:17:29 0° 208° (SSW) 2,381 0.3 -18.6°
Reaches altitude 10° 03:20:27 10° 180° (S) 1,513 -0.3 -18.1°
Maximum altitude 03:22:13 13° 148° (SSE) 1,315 -0.2 -17.8°
Drops below altitude 10° 03:24:00 10° 116° (ESE) 1,508 0.2 -17.6°
Sets 03:26:57 0° 88° (E) 2,368 0.8 -17.1°
